Hilo, HI

12:56 PM HST on February 19, 2017 (GMT -1000)
Hilo International

Weather History for PHTO - February, 2013

Change the Weather History Date:

Friday, February 8, 2013

  Actual Average Record
Temperature  
Mean Temperature 72 °F 71 °F  
Max Temperature 79 °F 79 °F 85 °F (1950)
Min Temperature 65 °F 63 °F 57 °F (1954)
Degree Days  
Heating Degree Days 0 0  
Month to date heating degree days 0 0  
Since 1 July heating degree days 0 0  
Cooling Degree Days 7 6  
Month to date cooling degree days 54 48  
Year to date cooling degree days 259 246  
Growing Degree Days 21 (Base 50)    
Moisture  
Dew Point 63 °F    
Average Humidity 78    
Maximum Humidity 93    
Minimum Humidity 62    
Precipitation  
Precipitation 0.11 in 0.34 in 3.41 in (1984)
Month to date precipitation 5.10 2.68  
Year to date precipitation 13.48 11.94  
Snow  
Snow 0.00 in - - ()
Month to date snowfall 0.0  
Since 1 July snowfall 0.0  
Snow Depth 0.00 in    
Sea Level Pressure  
Sea Level Pressure 30.10 in    
Wind  
Wind Speed 6 mph (WSW)    
Max Wind Speed 13 mph    
Max Gust Speed 15 mph    
Visibility 10 miles    
Events Rain    
T = Trace of Precipitation, MM = Missing Value Source: NWS Daily Summary

Daily Weather History Graph

Daily Weather History Graph

Search for Another Location

Airport or City:

Trip Planner

Search our weather history database for the weather conditions in past years. The results will help you decide how hot, cold, wet, or windy it might be!

Date:

Astronomy

Feb. 08, 2013 Rise Set
Actual Time 6:52 AM HST 6:16 PM HST
Civil Twilight 6:29 AM HST 6:39 PM HST
Nautical Twilight 6:03 AM HST 7:05 PM HST
Astronomical Twilight 5:37 AM HST 7:31 PM HST
Moon 5:24 AM HST (2/8) 5:04 PM HST (2/8)
Length of Visible Light 12h 09m
Length of Day
11h 24m
Waning Crescent, 3% of the Moon is Illuminated
Feb 8
Waning Crescent
Feb 9
New
Feb 17
First Quarter
Feb 25
Full
Mar 4
Last Quarter

Hourly Weather History & Observations

Time (HST) Temp. Dew Point Humidity Pressure Visibility Wind Dir Wind Speed Gust Speed Precip Events Conditions
12:41 AM 68.0 °F 63.0 °F 84% 30.13 in 10.0 mi WSW 6.9 mph - N/A   Mostly Cloudy
12:53 AM 66.9 °F 62.1 °F 84% 30.12 in 10.0 mi WSW 5.8 mph - N/A   Mostly Cloudy
1:53 AM 66.9 °F 62.1 °F 84% 30.11 in 10.0 mi SW 4.6 mph - N/A   Overcast
2:46 AM 66.9 °F 63.0 °F 87% 30.10 in 10.0 mi WSW 4.6 mph - N/A   Mostly Cloudy
2:53 AM 66.9 °F 63.0 °F 87% 30.09 in 10.0 mi SSW 3.5 mph - N/A   Mostly Cloudy
3:30 AM 66.9 °F 63.0 °F 87% 30.09 in 10.0 mi West 5.8 mph - N/A   Mostly Cloudy
3:53 AM 66.9 °F 62.1 °F 84% 30.08 in 10.0 mi WSW 6.9 mph - N/A   Overcast
4:53 AM 66.9 °F 62.1 °F 84% 30.09 in 10.0 mi WSW 6.9 mph - 0.02 in   Overcast
5:27 AM 66.0 °F 61.0 °F 84% 30.09 in 10.0 mi SW 5.8 mph - N/A   Scattered Clouds
5:53 AM 64.9 °F 60.1 °F 84% 30.09 in 10.0 mi WSW 8.1 mph - N/A   Partly Cloudy
6:35 AM 64.9 °F 60.1 °F 84% 30.10 in 10.0 mi WSW 6.9 mph - N/A   Overcast
6:42 AM 64.9 °F 60.1 °F 84% 30.10 in 10.0 mi WSW 6.9 mph - 0.00 in Rain Light Rain
6:53 AM 64.9 °F 60.1 °F 84% 30.10 in 10.0 mi WSW 8.1 mph - 0.00 in Rain Light Rain
7:53 AM 66.0 °F 62.1 °F 87% 30.12 in 10.0 mi WSW 5.8 mph - 0.00 in   Scattered Clouds
8:53 AM 66.9 °F 62.1 °F 84% 30.14 in 10.0 mi WSW 4.6 mph - N/A   Scattered Clouds
9:53 AM 73.0 °F 64.0 °F 73% 30.15 in 10.0 mi NNE 3.5 mph - N/A   Mostly Cloudy
10:53 AM 75.9 °F 64.9 °F 69% 30.14 in 10.0 mi North 6.9 mph - N/A   Mostly Cloudy
11:53 AM 77.0 °F 64.0 °F 64% 30.12 in 10.0 mi East 8.1 mph - N/A   Scattered Clouds
12:53 PM 78.1 °F 64.9 °F 64% 30.09 in 10.0 mi NNE 9.2 mph - N/A   Clear
1:53 PM 77.0 °F 64.9 °F 66% 30.06 in 10.0 mi NE 10.4 mph - N/A   Partly Cloudy
2:53 PM 77.0 °F 64.0 °F 64% 30.05 in 10.0 mi ENE 10.4 mph - N/A   Partly Cloudy
3:53 PM 75.9 °F 64.0 °F 67% 30.05 in 10.0 mi ENE 9.2 mph - N/A   Mostly Cloudy
4:53 PM 73.0 °F 64.0 °F 73% 30.05 in 10.0 mi ENE 4.6 mph - N/A   Clear
5:53 PM 72.0 °F 64.0 °F 76% 30.06 in 10.0 mi East 3.5 mph - N/A   Clear
6:53 PM 70.0 °F 64.0 °F 81% 30.08 in 10.0 mi Calm Calm - 0.00 in   Mostly Cloudy
7:03 PM 70.0 °F 64.9 °F 84% 30.09 in 10.0 mi Calm Calm - N/A   Mostly Cloudy
7:24 PM - - N/A% 30.09 in 10.0 mi SW 4.6 mph - N/A   Scattered Clouds
7:50 PM - - N/A% 30.10 in 9.0 mi WSW 3.5 mph - 0.00 in Rain Light Rain
7:53 PM - - N/A% 30.10 in 8.0 mi SW 3.5 mph - 0.00 in Rain Rain
8:13 PM 69.8 °F 66.2 °F 88% 30.10 in 10.0 mi SW 3.5 mph - 0.01 in   Overcast
8:53 PM 68.0 °F 66.0 °F 93% 30.11 in 10.0 mi WSW 6.9 mph - 0.01 in   Scattered Clouds
9:11 PM - - N/A% 30.11 in 10.0 mi WSW 6.9 mph - N/A   Mostly Cloudy
9:23 PM - - N/A% 30.12 in 10.0 mi WSW 6.9 mph - N/A   Mostly Cloudy
9:53 PM 66.2 °F 64.4 °F 94% 30.12 in 10.0 mi WSW 5.8 mph - N/A   Clear
10:36 PM - - N/A% 30.12 in 10.0 mi SW 5.8 mph - N/A   Mostly Cloudy
10:46 PM - - N/A% 30.12 in 6.0 mi NE 3.5 mph - 0.00 in Rain Light Rain
10:53 PM - - N/A% 30.12 in 3.0 mi Calm Calm - 0.05 in Rain Rain
11:19 PM - - N/A% 30.11 in 10.0 mi WSW 8.1 mph - 0.03 in   Overcast
11:49 PM 66.2 °F 60.8 °F 83% 30.11 in 10.0 mi West 3.5 mph - 0.03 in   Overcast
11:53 PM 66.0 °F 61.0 °F 84% 30.10 in 10.0 mi West 4.6 mph - 0.03 in   Overcast